| time (UTC) | temp F | wind direction | speed MPH | gust MPH | rain 1hr in | rain 24hr in | rain mn in | humidity % | barometer mb |
| 20260505203123 | 48 | 59 | 8.0 | 20.0 | 0.00 | 0.09 | 0.02 | 52 | 1001.2 |
| 20260505201559 | 49 | 135 | 10.0 | 24.0 | 0.00 | 0.09 | 0.02 | 51 | 1001.0 |
| 20260505200055 | 49 | 205 | 11.0 | 19.0 | 0.00 | 0.09 | 0.02 | 50 | 1000.8 |
| 20260505194554 | 49 | 163 | 8.0 | 17.0 | 0.00 | 0.10 | 0.02 | 54 | 1000.6 |
| 20260505193053 | 49 | 169 | 14.0 | 23.0 | 0.00 | 0.10 | 0.02 | 55 | 1000.3 |
| 20260505191555 | 48 | 147 | 19.0 | 29.0 | 0.00 | 0.10 | 0.02 | 55 | 999.9 |
| 20260505190051 | 48 | 150 | 13.0 | 22.0 | 0.00 | 0.10 | 0.02 | 57 | 1000.1 |
| 20260505184552 | 48 | 173 | 11.0 | 27.0 | 0.00 | 0.11 | 0.02 | 55 | 1000.0 |
| 20260505183049 | 50 | 165 | 11.0 | 21.0 | 0.00 | 0.11 | 0.02 | 60 | 1000.3 |
| 20260505181545 | 49 | 138 | 10.0 | 21.0 | 0.00 | 0.11 | 0.02 | 67 | 1000.1 |
| 20260505180045 | 47 | 104 | 11.0 | 17.0 | 0.00 | 0.11 | 0.02 | 77 | 1000.1 |
| 20260505174536 | 46 | 136 | 2.0 | 10.0 | 0.00 | 0.12 | 0.02 | 79 | 1000.2 |
| 20260505173033 | 45 | 136 | 7.0 | 12.0 | 0.00 | 0.12 | 0.02 | 86 | 1000.2 |
| 20260505171528 | 44 | 154 | 9.0 | 18.0 | 0.00 | 0.12 | 0.02 | 91 | 1000.3 |
| 20260505170035 | 42 | 167 | 7.0 | 13.0 | 0.00 | 0.12 | 0.02 | 95 | 1000.2 |
| 20260505164525 | 40 | 138 | 7.0 | 13.0 | 0.00 | 0.13 | 0.02 | 97 | 1000.2 |
| 20260505163026 | 38 | 116 | 8.0 | 14.0 | 0.00 | 0.13 | 0.02 | 97 | 1000.1 |
| 20260505161520 | 38 | 150 | 9.0 | 16.0 | 0.00 | 0.13 | 0.02 | 97 | 1000.0 |
| 20260505153016 | 35 | 263 | 3.0 | 7.0 | 0.00 | 0.14 | 0.02 | 97 | 1000.3 |
| 20260505151517 | 34 | 266 | 4.0 | 8.0 | 0.00 | 0.14 | 0.02 | 97 | 1000.0 |
| 20260505124600 | 35 | 283 | 1.0 | 5.0 | 0.00 | 0.17 | 0.02 | 96 | 999.8 |
| 20260505123056 | 35 | 283 | 5.0 | 8.0 | 0.01 | 0.17 | 0.02 | 96 | 999.8 |
| 20260505121551 | 35 | 273 | 3.0 | 6.0 | 0.01 | 0.17 | 0.02 | 95 | 999.8 |
| 20260505114546 | 36 | 188 | 1.0 | 7.0 | 0.01 | 0.18 | 0.02 | 95 | 999.8 |
| 20260505113048 | 37 | 243 | 3.0 | 6.0 | 0.00 | 0.17 | 0.01 | 94 | 999.8 |
| 20260505111545 | 38 | 247 | 1.0 | 9.0 | 0.00 | 0.17 | 0.01 | 94 | 1000.0 |
| 20260505101535 | 41 | 204 | 3.0 | 10.0 | 0.00 | 0.18 | 0.01 | 93 | 1000.4 |
| 20260505100031 | 41 | 170 | 7.0 | 15.0 | 0.00 | 0.18 | 0.01 | 93 | 1000.6 |
| 20260505094526 | 41 | 165 | 9.0 | 13.0 | 0.00 | 0.19 | 0.01 | 94 | 1000.9 |
| 20260505093025 | 41 | 169 | 8.0 | 12.0 | 0.01 | 0.19 | 0.01 | 94 | 1001.2 |
| 20260505091519 | 41 | 140 | 7.0 | 12.0 | 0.01 | 0.19 | 0.01 | 94 | 1001.5 |
| 20260505090021 | 41 | 181 | 7.0 | 11.0 | 0.01 | 0.19 | 0.01 | 94 | 1001.5 |
| 20260505084526 | 41 | 189 | 6.0 | 11.0 | 0.01 | 0.20 | 0.01 | 94 | 1001.8 |
| 20260505083015 | 41 | 145 | 5.0 | 11.0 | 0.01 | 0.19 | 0.00 | 94 | 1001.9 |
| 20260505081514 | 41 | 124 | 8.0 | 13.0 | 0.01 | 0.19 | 0.00 | 94 | 1002.0 |
| 20260505080056 | 41 | 157 | 8.0 | 13.0 | 0.01 | 0.19 | 0.00 | 95 | 1002.2 |
| 20260505074555 | 41 | 175 | 6.0 | 14.0 | 0.01 | 0.19 | 0.19 | 95 | 1002.4 |
| 20260505073056 | 41 | 144 | 5.0 | 11.0 | 0.01 | 0.18 | 0.18 | 95 | 1002.6 |
| 20260505071551 | 41 | 140 | 7.0 | 13.0 | 0.01 | 0.18 | 0.18 | 95 | 1002.9 |
| 20260505064555 | 41 | 119 | 10.0 | 17.0 | 0.01 | 0.19 | 0.18 | 94 | 1003.0 |
| 20260505063048 | 41 | 96 | 11.0 | 15.0 | 0.01 | 0.18 | 0.17 | 94 | 1003.1 |
| 20260505061609 | 42 | 90 | 7.0 | 14.0 | 0.01 | 0.18 | 0.17 | 94 | 1003.5 |
| 20260505060048 | 42 | 106 | 6.0 | 11.0 | 0.01 | 0.18 | 0.17 | 94 | 1003.9 |
| 20260505054546 | 42 | 144 | 7.0 | 10.0 | 0.01 | 0.19 | 0.17 | 94 | 1004.0 |
| 20260505053040 | 43 | 109 | 7.0 | 13.0 | 0.00 | 0.18 | 0.16 | 94 | 1004.2 |
| 20260505051539 | 43 | 99 | 6.0 | 16.0 | 0.01 | 0.18 | 0.16 | 93 | 1004.3 |
| 20260505041531 | 44 | 90 | 5.0 | 10.0 | 0.01 | 0.18 | 0.15 | 93 | 1005.1 |
| 20260505040038 | 45 | 46 | 3.0 | 10.0 | 0.01 | 0.18 | 0.15 | 93 | 1005.3 |
| 20260505034536 | 45 | 279 | 6.0 | 10.0 | 0.01 | 0.19 | 0.15 | 92 | 1005.6 |
| 20260505033024 | 45 | 83 | 5.0 | 10.0 | 0.01 | 0.19 | 0.15 | 92 | 1005.9 |
| 20260505031525 | 45 | 96 | 4.0 | 8.0 | 0.00 | 0.18 | 0.14 | 91 | 1006.1 |
| 20260505030019 | 45 | 94 | 5.0 | 10.0 | 0.00 | 0.18 | 0.14 | 90 | 1006.3 |
| 20260505024517 | 46 | 103 | 6.0 | 10.0 | 0.00 | 0.18 | 0.14 | 88 | 1006.5 |
| 20260505023016 | 46 | 121 | 4.0 | 9.0 | 0.01 | 0.18 | 0.14 | 87 | 1006.7 |
| 20260505021514 | 47 | 92 | 2.0 | 9.0 | 0.01 | 0.18 | 0.14 | 85 | 1006.8 |
| 20260505020014 | 48 | 84 | 8.0 | 13.0 | 0.01 | 0.18 | 0.14 | 82 | 1006.9 |
| 20260505014515 | 48 | 116 | 10.0 | 18.0 | 0.01 | 0.19 | 0.14 | 80 | 1007.1 |
| 20260505013011 | 48 | 103 | 15.0 | 20.0 | 0.00 | 0.18 | 0.13 | 79 | 1007.0 |
| 20260505011509 | 48 | 147 | 9.0 | 22.0 | 0.00 | 0.18 | 0.13 | 78 | 1007.2 |
| 20260505010007 | 48 | 138 | 12.0 | 19.0 | 0.00 | 0.18 | 0.13 | 77 | 1007.4 |
| 20260505004507 | 49 | 137 | 14.0 | 21.0 | 0.00 | 0.19 | 0.13 | 78 | 1007.8 |
| 20260505003003 | 49 | 133 | 10.0 | 22.0 | 0.00 | 0.19 | 0.13 | 81 | 1008.0 |
| 20260505001601 | 49 | 14 | 7.0 | 17.0 | 0.00 | 0.19 | 0.13 | 84 | 1008.3 |
| 20260505000107 | 48 | 103 | 8.0 | 17.0 | 0.00 | 0.19 | 0.13 | 84 | 1008.7 |
| 20260504234605 | 48 | 35 | 7.0 | 16.0 | 0.00 | 0.19 | 0.13 | 82 | 1009.0 |
| 20260504233052 | 48 | 92 | 7.0 | 13.0 | 0.00 | 0.19 | 0.13 | 81 | 1009.3 |
| 20260504231551 | 48 | 181 | 4.0 | 10.0 | 0.00 | 0.19 | 0.13 | 79 | 1009.7 |
| 20260504230046 | 48 | 174 | 4.0 | 9.0 | 0.00 | 0.19 | 0.13 | 79 | 1009.8 |
| 20260504224545 | 48 | 259 | 4.0 | 8.0 | 0.00 | 0.19 | 0.13 | 78 | 1009.8 |
| 20260504223043 | 47 | 205 | 4.0 | 11.0 | 0.00 | 0.19 | 0.13 | 79 | 1010.1 |
| 20260504221540 | 47 | 232 | 4.0 | 11.0 | 0.00 | 0.19 | 0.13 | 83 | 1010.4 |
| 20260504220044 | 46 | 134 | 8.0 | 16.0 | 0.01 | 0.19 | 0.13 | 87 | 1010.6 |
| 20260504214533 | 44 | 157 | 11.0 | 19.0 | 0.01 | 0.19 | 0.13 | 91 | 1010.9 |
| 20260504213024 | 43 | 92 | 8.0 | 19.0 | 0.01 | 0.19 | 0.13 | 95 | 1011.0 |
| 20260504211524 | 43 | 117 | 3.0 | 10.0 | 0.01 | 0.19 | 0.13 | 96 | 1011.4 |
| 20260504210019 | 43 | 55 | 2.0 | 8.0 | 0.00 | 0.18 | 0.12 | 97 | 1011.6 |